Dewpoint
41 43 43 43 43 43 43 39 31 42 47 35 35 32 35 35 36 35 35 35 35 31 28 19 21 23 19 14 13 10 13 12 6 3 8 7 8 7 10 5 5 13 11 3
42 43 42 42 43 43 40 34 33 40 41 28 30 33 33 33 31 34 34 36 36 37 35 32 26 20 20 17 11 9 12 13 8 6 8 9 3 8 13 14 13 7 3 4
41 42 41 42 43 44 42 34 28 33 36 35 32 28 32 33 37 35 36 38 38 37 36 36 34 29 20 19 15 17 13 17 9 11 10 10 5 7 12 7 4 4 5 5
40 41 41 40 42 42 39 31 29 29 27 29 30 32 30 30 27 33 32 34 36 34 33 33 33 26 18 18 20 18 17 15 13 10 9 9 8 7 12 6 3 4 6 7
41 41 40 41 41 41 39 31 30 32 30 28 31 30 28 31 31 30 30 31 30 35 33 33 32 33 27 22 18 17 21 20 15 10 12 11 8 9 13 12 11 9 10 10
40 39 40 42 41 40 36 34 37 30 26 28 28 27 26 26 30 30 31 31 32 32 34 36 35 35 35 33 32 25 22 21 12 9 12 9 5 8 9 11 14 12 10 12
38 38 40 41 41 40 36 34 36 31 24 28 27 26 28 27 28 28 31 32 30 31 35 34 35 38 37 38 35 28 22 20 16 15 10 10 12 15 11 9 10 14 15 18
37 39 39 40 40 40 39 39 33 31 24 26 27 29 28 29 29 29 30 30 36 34 32 30 28 28 29 30 33 30 27 23 24 21 18 17 16 13 12 9 9 22 19 23
37 38 38 40 39 39 39 38 38 33 28 26 31 30 29 29 28 28 29 36 38 35 33 30 24 21 24 24 26 30 31 31 25 22 18 16 14 17 21 17 9 23 23 23
37 37 38 38 39 37 38 38 39 35 28 32 32 28 28 30 30 29 30 32 36 36 31 27 25 24 26 19 17 19 18 20 18 19 18 18 18 20 19 11 12 25 25 24
36 37 38 38 39 38 38 37 40 35 32 29 31 32 33 31 32 29 31 34 33 32 29 28 27 26 24 22 22 19 15 14 13 18 20 18 22 20 15 20 28 27 26 27
34 36 37 38 38 37 39 36 39 40 35 32 38 36 37 36 36 32 34 33 34 33 31 30 26 25 27 25 21 21 17 19 18 19 20 24 30 23 28 28 27 27 27 28
35 34 35 37 37 38 39 37 38 38 34 33 34 32 37 40 39 39 31 34 36 34 33 29 26 18 21 20 20 20 22 23 19 21 27 28 30 30 29 28 27 28 28 24
34 34 36 36 36 36 38 36 37 38 34 27 27 39 37 40 40 41 39 37 39 35 32 28 28 21 23 19 21 19 22 24 24 26 29 29 29 29 28 28 28 25 23 20
35 35 36 35 36 36 37 38 37 39 35 28 31 36 37 39 41 39 38 39 37 35 30 28 24 23 23 25 23 22 25 23 21 18 28 26 28 29 28 26 24 22 20 19
37 36 38 39 38 37 37 31 38 39 40 33 26 34 35 36 37 39 38 40 36 33 32 28 24 25 21 20 20 22 27 27 25 22 30 30 30 28 25 23 21 20 19 19
37 37 37 37 38 37 32 32 37 40 41 32 28 29 34 36 36 34 37 37 33 32 30 24 21 21 20 15 15 23 27 29 31 31 30 28 27 25 21 19 20 20 18 18
38 38 39 39 38 37 35 36 42 41 36 35 28 27 30 34 31 31 34 32 30 27 24 21 20 23 21 12 25 31 31 31 30 30 29 29 23 20 19 18 17 17 16 17
38 40 39 37 36 34 33 40 44 41 35 30 29 25 25 34 31 32 31 28 24 27 19 19 20 16 9 16 30 30 30 29 29 27 25 22 21 18 16 16 15 15 15 15
40 38 34 30 33 39 40 38 34 35 36 33 28 31 27 31 28 26 22 24 20 16 23 26 18 16 25 27 32 31 30 28 27 25 23 20 18 17 16 15 15 14 14 14
34 32 31 38 40 36 34 30 28 29 27 30 29 31 27 31 22 24 25 21 23 16 21 20 20 17 22 30 31 30 29 28 28 27 25 23 20 17 16 16 15 14 14 13
34 37 39 38 34 31 27 24 26 26 23 27 25 25 28 28 29 20 25 23 22 12 23 18 18 23 26 29 29 28 27 27 26 25 23 21 19 18 17 16 15 15 14 13
39 33 31 31 28 22 21 18 22 24 26 27 27 24 26 26 27 24 23 21 21 24 19 16 18 25 28 27 26 26 25 23 22 20 19 19 18 18 17 16 16 14 13 11
26 25 23 21 21 21 19 20 23 26 27 27 26 26 24 26 23 23 21 23 22 19 17 16 20 26 26 25 25 24 23 21 20 20 19 18 18 17 16 15 14 12 10 9
21 19 14 18 21 26 29 29 28 28 28 27 25 25 26 25 23 22 23 21 19 19 16 18 23 25 24 24 24 23 21 19 19 19 17 16 15 15 13 12 12 10 9 8
27 26 25 28 27 27 27 27 27 29 27 25 24 23 20 18 21 19 19 18 14 14 20 23 25 24 24 23 22 21 20 18 17 16 15 14 14 13 12 10 10 9 9 7
26 27 30 30 30 28 28 29 28 29 24 22 21 15 11 22 18 17 20 16 17 25 24 25 24 24 23 21 20 18 17 16 14 14 14 12 12 11 11 10 9 9 8 7
Wind_Speed
22 20 17 18 23 17 12 6 9 2 12 19 7 13 14 11 9 19 12 3 8 19 7 9 19 20 11 13 16 20 14 6 10 12 2 6 6 10 14 13 8 4 2 17
23 20 20 20 25 21 8 5 7 1 3 19 24 11 18 21 21 15 18 12 12 3 4 9 8 13 3 6 17 18 15 9 10 2 3 1 10 8 8 7 5 14 10 14
20 20 19 19 22 24 7 7 9 5 5 4 10 28 17 18 12 14 19 6 13 7 7 6 8 7 2 1 12 8 18 9 22 29 11 7 11 16 17 15 10 12 25 22
21 21 21 24 21 25 17 5 7 7 14 16 24 11 13 24 22 18 17 7 15 7 12 7 8 7 3 1 2 4 10 14 12 5 5 10 8 15 22 22 27 18 25 24
23 21 23 23 20 18 11 6 6 2 3 5 22 15 24 21 19 15 20 19 14 19 18 14 6 1 9 7 5 4 1 11 1 11 5 3 8 7 20 21 9 17 17 25
24 20 21 18 18 15 4 4 3 7 11 6 13 24 25 32 20 8 18 12 12 15 22 20 20 16 16 14 5 3 6 15 12 15 2 4 13 17 16 12 9 14 21 23
21 21 19 17 18 23 5 3 1 6 9 14 20 17 28 28 16 28 4 13 18 8 2 4 3 2 10 14 24 11 3 6 6 7 7 13 7 3 10 21 14 16 6 3
17 17 16 15 17 21 11 6 3 3 11 14 10 15 14 14 17 20 13 18 4 11 5 3 2 1 2 5 7 15 11 6 5 5 14 12 18 7 8 10 12 9 9 11
16 15 15 15 16 18 13 12 7 2 2 9 2 4 13 14 15 12 20 3 11 5 5 6 11 11 7 7 2 9 11 13 13 4 7 14 3 3 3 5 17 12 15 21
15 16 16 15 16 19 10 6 11 3 3 5 4 8 8 8 11 6 7 14 10 13 7 10 8 8 7 13 16 11 12 10 24 21 9 9 8 3 7 9 8 13 19 23
15 14 14 17 18 18 13 5 11 12 4 10 10 10 7 6 6 9 5 8 5 6 17 9 6 6 11 8 10 11 13 15 10 7 10 17 8 6 9 4 4 14 16 13
15 14 12 14 15 14 11 3 5 9 7 5 2 13 10 13 15 2 4 5 6 11 7 8 6 4 5 8 6 1 11 10 12 16 12 2 0 2 2 12 17 12 16 16
16 15 13 12 12 12 11 5 3 6 8 9 9 12 16 18 18 15 8 5 6 8 8 8 3 5 8 11 9 7 4 5 7 9 5 4 3 5 6 12 13 16 20 23
18 17 16 14 14 14 14 7 6 7 3 7 10 3 5 9 17 21 16 21 16 8 7 5 7 6 6 7 5 8 7 15 10 3 1 7 3 5 14 17 18 21 17 17
21 20 19 19 16 15 10 7 6 10 7 3 5 5 7 9 14 22 18 22 27 11 6 5 7 4 7 3 5 7 9 10 14 11 19 7 12 15 18 22 20 20 24 17
22 21 18 15 16 15 6 4 12 17 12 3 6 2 5 6 19 21 13 15 10 6 5 2 3 0 4 8 7 3 8 10 9 6 18 6 20 16 13 20 19 16 19 20
23 21 18 15 17 13 8 6 3 15 6 1 4 5 3 7 4 2 7 10 5 4 5 5 4 3 5 4 6 8 9 8 16 24 26 16 15 13 18 22 20 19 18 16
24 21 22 20 18 9 13 19 17 15 5 2 5 6 5 4 1 4 2 5 3 2 5 3 4 5 3 3 4 12 13 18 18 7 8 17 23 23 21 21 23 21 18 17
23 28 21 8 6 6 7 7 6 3 4 4 4 3 4 4 3 4 4 2 4 2 2 2 1 2 5 5 17 20 23 11 18 15 23 24 27 24 22 22 18 21 17 15
31 26 6 4 8 7 14 3 2 5 7 5 4 1 2 1 0 3 3 4 3 3 0 2 1 3 3 4 12 17 15 25 25 25 15 20 21 23 23 21 15 18 18 17
11 6 6 5 18 4 2 4 4 3 4 6 5 4 2 5 4 3 4 3 1 3 3 4 2 3 5 13 18 15 17 20 13 17 19 23 29 25 22 17 16 17 17 17
13 9 8 5 4 3 4 4 3 5 4 5 7 8 4 3 2 4 5 3 1 2 2 3 3 5 9 20 21 17 18 17 14 18 22 19 20 20 20 19 18 16 15 17
8 4 4 4 2 4 6 6 4 4 7 7 7 9 3 2 7 5 3 3 1 2 2 3 5 6 13 17 18 17 15 16 18 17 17 20 19 18 21 19 15 18 17 16
4 5 6 6 6 7 9 10 7 5 6 13 14 8 4 2 3 2 3 1 1 1 3 6 5 14 17 15 16 23 19 18 20 20 19 21 20 18 15 17 19 19 19 18
2 2 4 6 3 3 2 1 3 2 13 15 11 7 4 4 3 2 4 2 3 6 6 3 4 15 18 18 17 19 19 19 19 19 20 21 21 20 17 16 16 17 19 18
3 4 2 1 4 3 2 5 12 3 14 11 8 4 4 4 5 3 5 5 6 3 3 3 12 17 16 17 16 16 17 18 19 18 19 20 20 20 19 15 14 16 19 18
3 2 1 0 4 3 1 5 7 4 11 4 4 6 4 6 3 3 5 5 3 6 5 5 11 19 19 18 18 19 19 20 19 19 18 16 16 19 18 17 13 15 16 16
Wind_Direction
250 239 237 244 225 198 232 189 199 163 163 194 233 204 207 203 243 234 251 232 258 244 213 218 213 222 224 208 168 192 196 173 203 200 265 206 183 190 176 205 213 213 225 266
244 240 232 227 224 184 174 210 195 49 194 210 219 235 232 225 237 232 226 228 227 323 238 235 226 229 212 183 178 184 174 192 215 241 267 155 217 199 173 137 125 215 226 258
234 233 233 236 215 187 207 172 188 209 199 256 210 220 220 216 236 246 209 238 241 253 239 260 280 251 320 240 202 199 162 177 210 226 228 170 201 199 192 190 212 226 237 256
236 227 220 239 212 183 172 221 209 188 190 225 215 220 220 215 224 214 217 224 212 220 230 225 225 267 254 343 1 152 159 209 214 256 227 185 213 203 193 203 222 217 256 238
240 224 235 218 213 181 207 191 178 116 162 184 208 218 226 209 219 215 222 229 232 207 222 221 250 107 11 349 12 49 74 210 4 246 199 231 246 217 203 214 226 236 251 261
231 226 229 219 215 179 166 252 215 150 205 177 189 220 228 222 219 238 238 222 239 245 234 218 233 227 207 203 256 342 177 173 186 235 146 235 271 232 206 209 208 216 236 248
220 226 229 219 213 192 146 214 201 182 220 199 208 208 221 232 228 236 204 213 241 261 190 110 58 307 283 233 251 202 185 145 198 205 151 238 257 240 218 222 232 215 233 233
221 217 221 222 217 205 201 159 204 218 205 208 237 230 228 239 228 243 234 249 254 146 100 144 221 273 1 266 242 203 196 147 226 203 219 280 283 201 182 189 249 200 192 135
224 220 221 222 225 209 191 211 147 133 4 224 152 206 232 225 212 229 242 259 165 104 150 172 199 213 185 207 163 228 196 193 203 172 213 224 243 202 155 119 263 190 158 158
229 227 218 220 226 216 186 207 178 166 208 298 182 208 233 198 206 218 194 198 186 174 201 193 195 198 180 178 173 179 170 171 205 214 227 283 244 199 136 194 256 162 166 162
224 224 225 218 226 212 193 205 185 197 221 251 260 273 230 258 282 219 174 151 162 175 209 197 199 188 192 194 180 164 170 172 194 171 207 249 190 146 189 180 113 156 149 140
219 220 217 210 208 199 172 178 184 195 230 274 251 234 238 204 185 178 344 297 161 182 192 204 160 185 158 163 196 119 190 189 184 185 210 212 349 230 123 157 156 158 139 135
217 220 213 208 199 184 165 157 173 199 236 260 240 232 228 215 198 175 228 265 254 212 180 171 184 195 168 166 211 164 212 165 153 153 207 191 176 131 139 138 133 131 131 137
216 218 211 209 210 207 182 181 198 241 216 228 265 134 199 204 197 202 199 228 263 275 173 159 213 197 189 186 155 182 194 156 141 108 139 119 151 159 138 121 116 114 117 132
212 213 216 211 215 215 203 191 211 247 268 266 286 314 242 207 205 217 220 219 227 234 188 185 207 144 124 137 141 191 187 161 173 207 191 162 172 157 140 134 136 131 127 121
205 206 210 200 204 197 114 312 240 215 240 231 270 241 233 270 247 225 211 209 161 156 142 190 250 248 132 162 185 192 174 178 163 162 152 140 140 132 130 130 132 128 129 135
206 201 210 213 203 183 170 213 297 188 180 190 257 252 210 236 127 1 110 155 155 132 113 184 201 136 137 144 176 163 161 136 120 120 110 108 139 151 130 122 115 110 108 114
196 200 210 203 204 202 233 258 300 164 163 268 278 281 321 24 202 108 128 106 133 99 154 162 167 135 189 169 157 124 123 118 119 111 110 140 123 120 120 122 125 124 128 128
218 204 177 161 195 213 228 197 229 144 179 208 229 261 286 0 19 86 44 47 84 354 75 79 84 115 217 188 157 154 150 148 139 110 116 127 133 135 136 137 138 138 144 142
145 138 125 186 189 200 144 249 80 204 202 201 241 145 269 217 346 74 114 43 108 132 68 107 134 197 253 201 156 147 144 133 128 120 125 129 138 148 153 161 154 153 153 149
133 131 165 135 129 122 120 231 214 186 207 200 175 195 155 7 81 103 33 112 74 128 167 159 172 242 201 154 146 152 149 148 145 157 159 162 156 155 153 151 147 147 151 153
155 126 114 104 122 138 188 227 264 227 216 168 161 151 126 41 13 81 17 94 71 123 146 152 232 226 174 157 152 150 147 141 133 141 142 141 144 147 146 147 150 148 139 141
103 99 115 149 136 156 195 198 213 221 176 177 166 127 95 92 43 71 71 71 98 129 165 234 225 174 158 150 140 135 134 129 125 122 123 127 128 132 142 142 138 138 142 146
141 124 142 195 181 213 199 203 195 201 155 144 125 91 91 54 71 67 91 51 109 164 236 236 214 179 161 148 142 139 148 142 138 136 133 134 136 134 132 139 145 146 152 155
118 168 177 200 215 226 266 255 147 144 137 121 106 60 73 41 99 47 111 135 233 222 234 239 196 154 148 146 145 140 142 143 142 142 142 141 140 141 140 144 144 145 148 155
101 65 128 209 184 188 175 137 132 95 126 98 80 111 141 205 141 145 195 181 226 256 239 273 143 144 143 141 138 139 141 143 142 141 140 140 145 148 145 137 145 153 156 159
53 48 41 27 71 114 128 146 135 143 128 120 130 151 183 123 152 210 192 219 264 309 308 163 154 146 142 137 137 140 140 141 141 137 137 135 131 130 138 152 160 158 165 167